Regional Weather Roundup
Issued by NWS

Home | Current Version | Previous Version | Text Only | Print | Product List | Glossary On
Versions: 1 2 3 4 5 6 7 8 9 10 11 12 13 14 15 16 17 18 19 20 21 22 23 24 25 26 27 28 29 30 31 32 33 34 35 36 37 38 39 40 41 42 43 44 45 46 47 48 49 50
000
ASUS43 KDMX 180507
RWRIA

WEATHER ROUNDUP FOR IOWA
NATIONAL WEATHER SERVICE DES MOINES IA
1200 AM CDT SAT APR 18 2015

NOTE: "FAIR" INDICATES FEW OR NO CLOUDS BELOW 12,000 FEET WITH NO
SIGNIFICANT WEATHER AND/OR OBSTRUCTIONS TO VISIBILITY.

* - THESE STATIONS ARE NOT NWS STATIONS...THUS NOT UNDER NWS
QUALITY CONTROL.  THEY ALSO DO NOT REPORT WEATHER SUCH
AS PRECIPITATION OR FOG.

IAZ001>003-012>014-020>022-031>034-043>046-180600-
   NORTHWEST IOWA

CITY           SKY/WX    TMP DP  RH WIND       PRES   REMARKS
CARROLL *      CLOUDY    59  46  63 CALM      30.01F
CHEROKEE *     MOCLDY    54  50  87 CALM      30.03S
DENISON *      CLOUDY    59  50  72 N5        30.00F
LE MARS *      CLOUDY    55  48  76 CALM      30.03S
ORANGE CITY *  CLEAR     63  41  45 NE6       30.04S
SHELDON *      MOCLDY    57  41  54 NE8       30.03S
SIOUX CITY     CLOUDY    64  47  53 CALM      30.01F
SPENCER        MOCLDY    59  41  51 N5        30.04S
STORM LAKE *   PTCLDY    63  45  51 NE8       30.04S
$$

IAZ055>058-069>071-079>083-090>094-180600-
   SOUTHWEST IOWA

CITY           SKY/WX    TMP DP  RH WIND       PRES   REMARKS
ATLANTIC *     CLOUDY    59  55  88 N5        30.00S
AUDUBON *      MOCLDY    57  52  82 NW7       30.02F
CLARINDA *     RAIN      64  59  82 S10G22    30.03R
COUNCIL BLFS * MOCLDY    64  57  77 E6        29.99F
CRESTON *      PTCLDY    63  54  72 E9        30.01S
HARLAN  *      CLOUDY    61  57  88 N5        30.04S
LAMONI         CLOUDY    66  54  65 NE5       30.00S
RED OAK *      CLOUDY    64  55  72 CALM      29.99S
SHENANDOAH *   CLOUDY    66  59  77 SE12      30.00S
$$

IAZ047>049-059>061-072>074-084-180600-
   CENTRAL IOWA

CITY           SKY/WX    TMP DP  RH WIND       PRES   REMARKS
AMES           PTCLDY    58  50  75 N5        30.01S
ANKENY *       CLEAR     57  52  82 CALM      30.00S
CHARITON *     MOCLDY    63  52  67 CALM      30.01S
DES MOINES     CLOUDY    66  52  60 CALM      30.01R
GRINNELL*      PTCLDY    63  50  63 CALM      30.02S
KNOXVILLE *    MOCLDY    66  52  59 NE3       29.99F
MARSHALLTOWN   MOCLDY    58  48  69 NE3       30.01S
PELLA *        MOCLDY    64  54  70 CALM      30.01S
PERRY *          N/A     63  50  63 NE5       30.01S
$$

IAZ004>006-015-016-023>025-035-036-180600-
   NORTH CENTRAL IOWA

CITY           SKY/WX    TMP DP  RH WIND       PRES   REMARKS
ALGONA *       PTCLDY    61  46  59 N3        30.04S
CLARION *      MOCLDY    57  46  67 NE6       30.03R
ESTHERVILLE    PTCLDY    54  35  48 N7        30.04R
FORT DODGE *   CLOUDY    57  46  67 CALM      30.03S
MASON CITY     CLEAR     55  44  66 N6        30.04S
FOREST CITY *  CLEAR     50  46  87 CALM      30.04R
IOWA FALLS *     N/A     63  45  51 CALM      30.03S
$$

IAZ007>011-017>019-026>030-037>042-050>054-066-180600-
   NORTHEAST IOWA

CITY           SKY/WX    TMP DP  RH WIND       PRES   REMARKS
CEDAR RAPIDS   MOCLDY    63  49  60 CALM      30.00S
CHARLES CITY * CLEAR     59  45  58 N7        30.03S
CLINTON *      CLEAR     61  46  59 CALM      30.03S
DECORAH *      CLEAR     61  45  55 NW5       30.02S
DUBUQUE        CLEAR     58  46  64 CALM      30.02S
MONTICELLO *   CLEAR     59  54  82 CALM      30.01S
OELWEIN *      PTCLDY    61  46  59 NE6       30.02S
WATERLOO       CLEAR     61  46  57 CALM      30.01S
$$

IAZ064-065-067-068-078-180600-
   EAST CENTRAL IOWA

CITY           SKY/WX    TMP DP  RH WIND       PRES   REMARKS
DAVENPORT      CLEAR     57  46  66 CALM      30.02R
IOWA CITY      PTCLDY    58  50  75 CALM      30.02R
MT. PLEASANT * PTCLDY    61  50  67 SE3       30.00F
MUSCATINE *    PTCLDY    57  50  77 CALM      30.01S
QUAD CITIES    CLEAR     55  48  77 CALM      30.00S
$$

IAZ062-063-075>077-085>089-095>099-180600-
   SOUTHEAST IOWA

CITY           SKY/WX    TMP DP  RH WIND       PRES   REMARKS
BURLINGTON     CLEAR     60  52  74 CALM      30.00S
FAIRFIELD *    CLEAR     59  50  72 E3        30.01S
FORT MADISON * PTCLDY    64  54  68 CALM      30.02S
KEOKUK *       CLEAR     63  54  72 CALM      30.00S
OSKALOOSA *      N/A     63  48  59 NE6       30.01S
CENTERVILLE *  CLEAR     64  54  68 E3        30.02S
OTTUMWA        PTCLDY    60  49  66 E6        30.00S
WASHINGTON *   CLEAR     59  52  77 CALM      30.01S
$$

ABBREVIATIONS USED IN REMARKS
   TC - TEMPERATURES IN CELSIUS
  WCI - WIND CHILL INDEX
   HX - HEAT INDEX
  VSB - VISIBILITY
$$



USA.gov is the U.S. government's official web portal to all federal, state and local government web resources and services.